Home > Weather > Cheyenne > Past weeks

Flag for U.S.A. Weather for the Past 2 Weeks in Cheyenne, Wyoming, U.S.A.

Now
43 °F

Sunny.


Feels Like: 36 °F
Forecast: 38 / 54 °F
Wind: 14 mph from Northwest

Location: Cheyenne Airport

Current Time: Feb 10, 2016 at 8:47:40 AM

Latest Report: Feb 10, 2016 at 7:53 AM


Visibility: 10 mi

Pressure: 30.12 "Hg (24.00 "Hg at 1855m altitude)

Humidity: 31%

Dew point: 14 °F

Location of CheyenneLocation

Historic Weather in Cheyenne — Graph

°F

Cheyenne Temperature Yesterday

Maximum temperature yesterday: 46 °F (at 11:53 AM)
Minimum temperature yesterday: 35 °F (at 12:53 AM)
Average temperature yesterday: 40 °F

High & Low Weather Summary for the Past Weeks

 TemperatureHumidityPressure
High54 °F (Jan 28, 1:53 PM)96% (Feb 1, 7:53 AM)30.51 "Hg (Feb 1, 7:53 AM)
Low7 °F (Feb 3, 5:53 AM)24% (Jan 29, 3:53 PM)29.40 "Hg (Jan 30, 10:53 AM)
Average31 °F56%30.07 "Hg
* Reported Jan 26 7:53 AM — Feb 10 7:53 AM, Cheyenne, Weather by CustomWeather, © 2016

Note: Actual official high and low records may vary slightly from our data, if they occured in-between our weather recording intervals... More about our weather records

Advertising

Cheyenne Weather History for the Previous 24 Hours

 ConditionsComfort  
Time TempWeatherWind HumidityBarometerVisibility
7:53 AM
Wed, Feb 10
43 °FSunny.14 mph31%30.12 "Hg10 mi
6:53 AM41 °FClear.22 mph35%30.12 "Hg10 mi
5:53 AM40 °FClear.21 mph38%30.11 "Hg10 mi
4:53 AM41 °FClear.20 mph36%30.09 "Hg10 mi
3:53 AM39 °FClear.16 mph39%30.10 "Hg10 mi
2:53 AM41 °FClear.16 mph35%30.10 "Hg10 mi
1:53 AM40 °FClear.20 mph36%30.10 "Hg10 mi
12:53 AM40 °FClear.18 mph38%30.11 "Hg10 mi
11:53 PM
Tue, Feb 9
39 °FClear.15 mph41%30.15 "Hg10 mi
10:53 PM38 °FClear.13 mph41%30.17 "Hg10 mi
9:53 PM36 °FClear.7 mph46%30.20 "Hg10 mi
8:53 PM39 °FClear.8 mph41%30.22 "Hg10 mi
7:53 PM41 °FClear.13 mph39%30.24 "Hg10 mi
6:53 PM41 °FClear.9 mph43%30.27 "Hg10 mi
5:53 PM43 °FClear.17 mph42%30.24 "Hg10 mi
4:53 PM45 °FSunny.20 mph40%30.23 "Hg10 mi
3:53 PM46 °FSunny.20 mph40%30.24 "Hg10 mi
2:53 PM46 °FSunny.18 mph40%30.22 "Hg10 mi
1:53 PM46 °FSunny.24 mph38%30.23 "Hg10 mi
12:53 PM46 °FSunny.20 mph40%30.25 "Hg10 mi
11:53 AM46 °FSunny.17 mph40%30.26 "Hg10 mi
10:53 AM44 °FSunny.23 mph41%30.28 "Hg10 mi
9:53 AM43 °FSunny.17 mph43%30.29 "Hg10 mi
8:53 AM40 °FSunny.12 mph45%30.30 "Hg10 mi
Weather by CustomWeather, © 2016

See weather overviewHow to use our weather pages